Temperature
15 15 16 16 16 17 18 20 22 22 23 23 23 23 22 21 21 18 17 17 17 17 17 17 16 16 16 16 16 16 16 16 16 16 16 15 15 15 15 15 15 15 15 15 15 15 15 15 15
15 15 15 16 16 17 19 20 21 22 22 22 22 22 22 20 19 17 17 16 16 16 16 16 16 16 16 16 16 16 16 15 15 15 15 15 15 15 15 15 15 15 15 15 15 15 15 15 15
14 15 15 16 16 18 20 21 21 22 22 21 21 21 20 19 17 16 16 16 16 15 16 16 16 16 16 15 15 15 15 15 15 15 15 15 15 15 15 15 15 15 15 15 15 15 15 15 14
14 14 16 16 17 19 20 21 21 21 21 21 21 20 18 17 16 16 16 16 15 15 15 15 15 15 15 15 15 15 15 15 15 15 15 15 15 15 15 15 15 15 15 15 14 14 14 14 14
14 15 15 15 17 19 20 21 21 20 21 20 20 19 17 16 16 16 15 15 15 15 15 15 15 15 15 15 15 15 15 15 15 15 15 15 15 15 14 14 14 14 14 14 14 14 14 14 14
14 15 15 15 17 19 20 20 20 20 20 20 20 19 16 16 16 15 15 15 15 15 14 14 14 15 15 15 14 14 14 14 14 14 14 14 14 14 14 14 14 14 14 14 14 14 14 14 14
14 14 15 16 17 18 19 19 19 19 19 19 19 18 16 15 15 15 14 14 14 14 14 14 14 14 14 14 14 14 14 14 14 14 14 14 14 14 14 14 14 14 14 14 14 14 14 13 13
13 14 15 16 17 18 18 18 18 18 18 18 17 17 15 14 14 14 14 14 14 14 14 14 14 14 14 14 14 14 14 14 14 14 14 14 14 14 13 13 13 13 13 13 13 13 13 13 13
13 13 14 15 16 17 17 17 17 16 16 16 16 15 14 14 14 13 13 13 13 13 13 13 13 13 13 13 13 13 13 14 14 14 14 14 13 13 13 13 13 13 13 13 13 13 13 13 13
13 12 14 15 16 15 15 16 16 15 15 15 14 14 13 13 13 13 13 13 13 13 13 13 13 13 13 13 13 13 13 13 13 13 13 13 13 13 13 13 13 13 13 13 13 13 13 12 12
13 13 14 15 14 14 14 15 15 14 14 14 13 13 12 12 12 12 12 12 12 12 12 12 13 13 13 13 13 13 13 13 13 13 13 12 12 12 12 12 12 12 12 12 12 12 12 12 12
12 12 13 13 13 13 13 13 13 13 13 13 12 12 12 11 11 11 11 11 12 12 12 12 12 12 12 12 12 12 12 12 12 12 12 12 12 12 12 12 12 12 12 12 12 12 12 11 11
11 11 12 12 11 12 12 12 12 12 12 12 12 12 11 11 10 10 11 11 11 11 12 12 12 12 12 12 12 12 12 12 12 12 12 12 12 12 12 12 12 12 12 11 11 11 11 11 11
11 10 11 11 11 11 11 11 11 11 11 11 11 10 10 10 10 10 10 10 10 11 11 11 11 12 12 12 12 12 12 12 12 12 12 12 12 12 12 12 11 11 11 11 11 11 11 11 11
10 10 10 11 11 11 10 9 10 10 10 10 10 10 10 10 9 9 9 10 10 10 10 11 11 11 11 11 11 11 11 11 11 11 11 11 11 11 11 11 11 11 11 11 11 11 11 10 10
10 9 9 10 10 10 9 8 9 10 10 9 9 9 9 9 8 8 9 9 9 9 10 10 10 11 11 11 11 11 11 11 11 11 11 11 11 11 11 11 11 11 11 11 11 10 10 10 10
8 8 9 9 10 10 9 8 9 9 9 9 8 8 8 8 8 8 8 8 9 9 9 9 10 10 11 11 11 11 10 11 11 11 11 11 11 11 11 11 11 11 11 11 10 10 10 10 10
7 8 8 9 9 9 8 8 8 8 8 8 8 8 7 7 7 7 7 8 8 9 9 9 9 10 10 10 10 10 10 10 10 10 11 11 11 10 11 11 11 10 10 10 10 10 9 9 9
7 8 8 8 9 8 8 7 7 8 8 7 7 7 7 7 6 6 7 7 7 8 8 8 9 9 9 9 10 9 10 10 10 10 10 10 10 10 10 10 10 10 10 10 10 9 9 9 9
7 7 7 8 8 8 7 6 7 7 7 7 6 6 6 6 6 6 6 6 6 7 7 8 8 8 8 9 9 9 9 9 9 9 9 9 10 10 10 10 10 10 10 9 9 9 9 9 9
6 6 6 6 7 7 6 5 6 6 7 7 6 6 6 6 5 5 5 5 6 6 7 7 7 7 8 8 8 8 8 9 9 9 9 9 9 9 9 9 10 9 9 9 9 9 9 9 8
5 6 6 6 5 5 6 4 5 6 5 5 5 5 5 5 5 5 4 5 5 5 6 6 7 7 7 7 8 8 8 8 8 8 8 8 9 9 9 9 9 9 9 9 9 9 8 8 8
5 6 6 5 5 4 5 4 4 5 4 4 4 4 4 4 4 4 4 4 4 5 5 5 6 6 6 7 7 7 7 7 7 8 8 8 8 8 8 8 8 8 9 8 8 8 8 8 8
5 5 5 5 4 3 4 4 3 3 3 3 4 4 3 4 4 4 3 3 4 4 4 5 5 5 6 6 6 6 7 7 7 7 7 7 7 8 8 8 8 8 8 8 8 8 8 8 8
4 3 3 3 3 4 5 4 2 2 3 3 3 3 3 3 3 3 3 3 3 3 4 4 4 5 5 5 5 6 6 6 6 6 6 7 7 7 7 7 7 7 7 7 7 7 7 7 7
3 3 3 3 3 4 4 3 1 2 2 2 2 2 1 1 2 2 2 2 2 2 3 3 4 4 4 4 5 5 5 5 5 5 6 6 6 6 6 6 6 6 7 7 7 7 7 7 7
3 3 3 3 3 3 3 2 2 2 1 1 1 1 1 0 1 1 1 1 1 2 2 3 3 3 3 4 4 4 4 4 5 5 5 5 5 5 5 5 6 6 6 6 6 6 6 6 6
3 3 2 2 2 2 3 2 1 0 0 0 0 -0 -0 -0 -0 0 0 0 1 1 1 2 2 2 3 3 3 3 4 4 4 4 4 4 4 5 5 5 5 5 5 5 5 6 6 6 6
1 1 2 2 2 2 1 1 1 0 0 -0 -0 -1 -1 -1 -1 -1 -0 -0 -0 0 1 1 1 2 2 2 3 3 3 3 3 3 4 4 4 4 4 4 4 4 4 5 5 5 5 5 5
1 0 0 0 1 1 0 -0 0 -0 -0 -0 -1 -1 -1 -1 -1 -1 -1 -1 -0 -0 0 1 1 1 1 2 2 2 2 3 3 3 3 3 3 3 4 4 4 4 4 4 4 4 4 4 5
Wind_Speed
11 10 6 2 3 5 10 8 6 4 2 1 4 3 3 3 3 6 3 5 11 14 15 16 15 15 14 13 13 13 12 12 13 13 13 13 13 13 13 13 14 14 15 15 16 16 16 16 16
11 7 4 3 4 8 9 9 8 4 1 4 3 2 2 3 7 7 4 6 11 13 14 15 16 15 14 14 13 13 12 12 13 13 13 13 13 13 13 13 13 14 14 15 15 15 16 15 15
9 6 4 4 6 9 7 3 3 3 3 3 3 1 1 3 6 5 4 7 10 12 13 15 16 15 14 13 13 13 12 12 12 13 13 13 13 13 13 13 13 14 15 15 15 15 15 15 14
4 3 4 6 13 11 8 2 2 3 3 2 3 3 3 5 4 5 6 7 10 11 13 15 15 14 14 13 13 13 13 12 12 12 12 12 12 13 13 13 13 13 14 14 14 14 14 14 13
4 4 6 9 15 12 7 2 0 2 3 4 3 3 4 5 8 8 5 6 8 10 12 15 14 14 14 14 13 13 13 13 12 12 12 12 13 13 13 13 13 13 13 14 14 14 14 13 12
4 4 7 12 14 11 7 4 3 4 2 2 2 2 3 6 6 6 5 5 7 9 11 14 14 14 14 14 13 13 13 13 12 12 12 12 12 12 13 13 13 13 13 13 13 13 13 12 11
5 6 11 13 12 10 6 3 3 5 3 2 1 2 4 5 5 5 5 5 7 9 10 10 11 12 13 13 13 13 13 13 12 12 12 12 12 12 12 13 13 13 13 13 13 13 12 11 10
5 5 11 13 12 9 3 1 2 3 2 1 1 1 3 5 5 6 6 6 6 7 8 8 9 10 10 11 13 13 13 13 13 12 13 12 12 11 12 12 12 13 13 13 13 13 12 11 9
6 7 11 11 9 5 0 1 2 2 1 1 2 4 6 8 7 6 5 5 5 6 6 7 7 8 9 10 11 13 13 13 13 12 12 12 11 11 10 11 13 13 12 12 12 12 11 10 8
6 9 12 8 6 3 2 1 2 1 1 1 2 5 8 7 6 6 5 5 5 5 5 5 6 6 7 8 9 10 10 11 10 10 10 9 9 10 10 12 13 12 11 11 11 11 9 8 6
6 9 8 7 4 4 4 3 2 2 2 1 2 4 6 5 4 4 4 4 4 4 5 4 5 6 5 5 7 6 7 7 8 9 9 9 9 9 10 10 10 10 9 8 8 8 7 6 6
7 9 8 7 4 4 5 4 3 2 1 3 3 4 5 4 4 3 4 4 4 4 4 4 4 5 5 5 5 6 5 5 5 6 8 7 6 6 7 7 8 8 7 7 6 5 5 6 6
10 7 6 5 3 4 5 5 4 4 1 3 4 4 4 3 2 2 3 4 4 4 4 4 4 4 4 4 4 4 4 5 5 5 6 6 5 4 5 6 6 6 7 6 4 4 5 5 6
5 6 7 6 6 5 4 6 6 3 1 1 2 2 3 2 2 2 3 3 3 3 3 3 4 4 5 4 3 4 5 5 6 5 5 6 6 5 5 5 5 5 6 6 6 5 4 4 5
7 8 9 8 7 4 2 5 6 2 1 1 1 2 2 2 3 2 2 3 3 3 4 3 4 4 4 4 4 4 5 5 5 5 6 6 6 6 5 5 4 5 6 6 6 6 5 4 5
7 7 7 5 6 5 4 6 3 2 3 2 1 1 2 2 3 3 3 2 2 3 4 3 3 4 4 3 3 4 5 5 5 6 6 6 5 6 6 4 4 6 6 5 4 4 3 3 3
6 7 8 5 6 4 4 4 2 1 3 3 1 1 2 2 3 3 3 3 2 3 4 4 4 4 4 4 4 4 4 5 5 6 5 5 5 5 5 4 5 6 5 4 3 3 3 4 4
5 6 6 6 5 5 5 4 1 1 2 3 2 1 1 2 2 2 3 3 3 3 4 4 4 4 4 4 4 4 3 3 4 5 4 5 5 5 5 5 5 5 3 3 4 4 3 4 4
7 8 8 6 4 5 6 4 2 2 1 2 2 1 1 2 2 3 4 4 4 4 4 4 4 4 4 3 3 2 2 2 2 3 4 5 5 5 5 4 4 4 3 3 4 4 4 3 3
8 9 8 5 3 3 5 5 2 2 2 1 2 1 2 2 2 3 4 4 3 3 3 3 4 3 3 2 2 2 2 1 2 2 3 4 4 4 4 4 3 3 3 3 4 4 3 2 2
8 7 6 5 4 4 4 4 4 4 2 2 2 3 2 2 2 3 4 3 3 3 3 2 2 3 3 3 3 3 3 2 1 2 2 2 3 3 3 3 3 3 3 3 3 4 4 3 2
7 4 4 4 3 3 4 4 4 3 3 2 2 2 2 2 3 3 3 3 3 2 3 3 3 3 3 3 2 3 2 2 1 1 1 2 3 3 3 3 3 2 2 3 3 3 3 4 3
5 6 7 6 5 4 4 4 2 3 1 1 2 3 2 2 3 3 3 3 3 3 3 3 3 3 3 3 3 2 2 2 2 2 2 2 2 2 2 2 2 2 2 2 2 2 3 3 4
5 5 6 4 3 4 6 5 0 1 1 0 2 4 3 3 4 4 4 4 4 4 3 3 3 3 3 3 3 2 2 2 2 2 2 1 1 1 1 2 2 2 1 2 2 2 3 3 3
4 1 1 1 3 3 2 2 1 3 3 3 3 3 4 5 5 5 5 4 3 3 3 3 4 3 3 3 3 2 2 2 2 1 2 1 1 1 1 1 1 1 1 1 2 2 2 3 3
4 2 1 2 2 1 1 1 2 4 5 6 5 5 6 6 6 5 4 3 3 3 3 3 3 3 3 3 2 2 2 1 1 0 0 1 1 1 2 2 2 1 2 2 2 2 2 2 3
3 2 2 2 2 1 1 2 2 5 7 7 7 7 7 6 5 5 5 4 3 3 3 3 3 3 3 3 3 3 2 2 2 2 1 1 1 0 1 1 2 2 2 1 2 2 2 2 3
3 3 2 1 1 1 1 1 1 3 4 6 7 7 6 5 5 4 4 4 4 4 3 3 3 3 3 3 3 2 2 2 2 1 1 1 1 1 0 1 1 2 2 2 2 2 2 3 3
4 2 2 2 2 1 1 1 3 2 3 4 5 5 5 5 5 4 4 4 4 4 3 3 3 3 3 3 3 2 2 2 2 2 2 1 1 1 1 1 2 2 2 2 2 3 3 3 3
4 4 3 1 2 2 0 1 4 5 5 5 5 5 6 6 5 4 4 4 4 4 4 3 3 3 3 3 3 3 3 2 2 2 2 2 2 1 1 1 1 2 2 2 3 3 3 3 3
Wind_Direction
296 274 257 249 239 233 239 238 244 242 239 30 28 16 8 10 39 102 137 108 113 126 135 142 138 136 135 133 130 128 129 130 130 128 125 122 118 115 110 107 105 103 102 101 99 97 94 91 90
289 279 257 230 231 232 237 223 228 237 129 79 63 19 17 49 73 100 103 104 117 125 135 142 139 138 137 136 134 131 129 129 130 128 126 124 121 117 114 111 106 104 103 101 99 98 95 94 93
273 263 249 225 229 233 242 214 185 146 112 118 123 48 2 58 81 99 106 118 118 122 133 139 140 139 139 137 135 132 131 129 128 129 127 125 123 120 116 112 107 104 104 102 101 99 97 95 94
262 230 242 240 239 238 250 257 33 109 124 133 138 131 94 52 46 87 108 118 123 123 130 136 140 140 138 137 136 135 133 130 128 126 128 126 125 122 117 113 110 108 107 106 104 101 99 97 94
237 239 226 234 242 246 253 258 246 246 167 160 175 154 105 71 72 89 103 112 119 120 123 136 138 137 137 138 137 137 136 133 130 127 124 126 124 121 116 114 114 114 113 110 108 105 103 100 95
235 230 230 233 239 238 232 227 243 252 218 155 177 176 107 100 91 101 104 107 109 114 118 133 134 133 136 137 135 134 132 130 129 126 123 122 124 123 119 118 117 117 115 114 112 110 106 102 98
242 234 239 245 247 239 228 194 231 250 223 182 162 155 125 100 93 109 111 105 102 108 116 122 129 131 131 133 133 131 129 127 127 125 122 122 121 123 124 122 121 120 119 115 113 112 108 105 100
258 261 248 245 247 249 241 235 257 290 261 83 48 110 118 111 100 109 111 99 101 108 114 121 127 129 128 130 133 131 129 128 127 125 124 123 123 123 124 124 123 121 121 118 115 113 111 108 104
255 244 244 246 251 255 128 248 283 331 55 65 50 55 80 106 104 107 103 96 102 108 114 120 122 125 128 132 136 133 132 132 130 130 131 132 130 127 123 125 123 122 122 122 121 118 117 114 109
228 236 241 255 278 295 331 294 288 288 237 182 52 69 88 99 114 126 129 125 120 116 115 116 118 118 126 133 135 138 138 141 140 141 143 142 134 131 128 127 128 127 127 128 131 129 128 124 120
236 244 256 270 297 299 291 294 301 242 246 137 112 103 106 104 117 135 144 137 127 117 109 107 114 116 115 117 128 130 133 141 142 146 147 139 135 132 127 128 130 131 135 134 139 137 140 130 122
255 263 267 275 315 302 286 286 276 255 288 37 49 102 110 123 138 152 149 135 122 116 106 100 104 109 109 111 121 124 123 130 135 144 145 140 133 131 133 134 140 143 143 138 143 141 140 129 121
247 256 264 275 291 285 280 267 264 254 353 45 57 74 100 120 113 139 127 115 108 110 110 111 103 109 112 108 115 116 119 124 121 120 123 129 131 133 133 133 135 139 140 140 140 135 125 119 119
266 275 273 262 250 251 257 264 257 257 69 59 92 111 117 111 97 90 102 104 111 105 105 109 107 102 108 111 115 110 115 116 120 121 118 118 122 126 129 125 126 125 134 141 136 121 110 98 95
256 262 261 244 232 224 245 261 245 235 138 196 170 150 130 106 79 63 113 112 111 107 99 96 102 94 101 112 114 107 111 116 110 110 114 110 116 119 120 119 118 128 131 131 123 112 104 96 92
242 245 245 233 220 204 204 237 229 186 170 188 200 159 128 92 73 41 60 86 84 97 99 95 90 83 87 93 101 101 109 108 101 101 105 102 108 114 114 115 116 126 123 116 112 115 110 99 95
223 237 242 236 210 200 203 235 201 176 171 172 194 184 139 99 74 40 51 71 70 81 90 91 88 80 77 79 81 87 93 102 108 103 102 105 103 112 116 115 122 126 119 114 114 112 123 117 103
254 256 254 245 202 192 213 234 201 150 176 162 170 164 127 115 95 69 67 68 71 72 78 84 84 81 75 74 79 77 79 82 94 101 103 107 114 119 114 115 122 124 116 119 118 114 107 120 122
270 260 259 260 231 211 219 234 253 213 171 173 166 162 148 112 91 93 85 67 67 64 71 77 83 83 85 93 103 110 112 96 90 88 109 112 116 118 115 115 123 125 126 135 134 128 121 124 124
267 260 261 274 260 234 223 235 223 226 219 157 139 141 149 113 95 89 90 79 66 65 57 66 75 81 89 85 106 118 115 105 94 77 90 103 105 111 120 113 124 128 135 135 136 130 130 137 156
275 258 263 277 304 255 238 247 226 209 179 94 83 80 91 117 117 101 91 86 74 70 64 58 66 74 76 67 94 102 96 91 80 87 99 82 102 105 114 119 117 128 139 157 155 148 146 161 194
271 290 290 273 252 253 213 243 214 194 148 99 61 54 67 87 103 95 93 90 78 67 62 60 61 64 68 72 99 118 125 135 140 134 117 90 110 116 109 118 125 133 138 159 174 161 157 158 178
274 292 271 254 237 251 242 241 237 157 140 65 47 52 50 82 110 104 89 95 83 69 63 66 67 62 62 65 74 103 112 108 112 119 128 123 96 110 122 126 130 134 137 151 162 163 171 169 173
307 287 263 240 223 236 227 212 260 151 226 53 53 48 36 61 79 84 77 74 77 70 62 64 71 66 57 59 71 71 100 110 113 135 143 143 131 104 112 125 119 132 134 149 168 174 182 184 174
332 311 298 233 210 223 178 181 133 44 45 59 68 52 44 55 59 64 60 50 59 66 64 65 65 56 48 50 61 60 49 109 130 148 162 154 154 143 189 141 116 112 136 156 154 158 184 182 177
281 266 248 254 245 274 185 190 122 67 51 58 60 56 46 40 43 49 50 46 51 53 63 69 65 56 45 48 50 59 45 58 80 87 156 163 180 179 182 173 159 161 163 172 163 159 189 181 184
309 288 301 285 273 259 204 104 96 41 44 43 42 43 40 34 32 45 42 39 43 45 43 60 65 53 42 40 42 45 38 40 42 29 19 60 42 158 171 174 172 174 174 172 164 181 195 191 195
320 321 325 292 273 261 242 158 42 21 22 29 29 25 27 29 25 34 41 39 32 35 37 46 49 48 46 38 36 33 34 39 32 26 12 2 21 18 195 192 194 186 182 183 178 192 190 198 207
6 359 327 307 296 281 263 38 34 65 45 36 26 19 21 23 17 21 27 34 37 35 34 41 38 34 35 30 24 29 26 36 38 23 355 345 358 347 280 229 214 212 201 187 185 203 195 203 212
41 15 3 357 315 325 264 53 31 51 43 41 31 23 20 23 19 22 26 33 31 25 25 32 28 24 22 15 16 20 18 23 30 14 351 347 339 328 297 267 241 236 225 204 199 204 202 205 213
Height
1503 1504 1506 1509 1511 1511 1504 1493 1486 1486 1486 1488 1489 1491 1493 1497 1501 1511 1511 1510 1510 1511 1514 1517 1519 1522 1524 1527 1529 1532 1534 1536 1537 1539 1541 1543 1544 1546 1547 1548 1549 1550 1551 1552 1553 1554 1555 1556 1557
1502 1505 1508 1508 1510 1510 1498 1488 1487 1486 1487 1489 1491 1493 1495 1499 1503 1506 1508 1510 1511 1511 1514 1517 1520 1522 1525 1527 1530 1532 1534 1536 1538 1540 1542 1543 1545 1547 1548 1550 1551 1552 1553 1554 1555 1556 1557 1558 1559
1502 1504 1507 1504 1503 1499 1491 1483 1483 1484 1487 1490 1493 1495 1498 1502 1504 1506 1508 1510 1511 1512 1514 1517 1520 1523 1525 1528 1530 1532 1535 1537 1539 1540 1542 1544 1546 1547 1549 1550 1552 1553 1554 1555 1556 1557 1558 1559 1560
1503 1505 1505 1503 1497 1487 1484 1483 1483 1484 1488 1490 1493 1497 1500 1504 1505 1506 1507 1509 1511 1513 1515 1517 1520 1523 1525 1528 1530 1533 1535 1537 1539 1541 1543 1545 1546 1548 1550 1551 1553 1554 1555 1556 1557 1559 1560 1561 1562
1502 1503 1502 1499 1491 1483 1482 1483 1484 1486 1488 1490 1493 1496 1501 1504 1504 1505 1507 1509 1511 1513 1515 1518 1520 1523 1526 1528 1531 1533 1535 1537 1539 1541 1543 1545 1547 1548 1550 1552 1553 1555 1556 1557 1558 1560 1561 1562 1563
1501 1498 1499 1495 1486 1481 1482 1483 1485 1486 1488 1490 1493 1496 1502 1504 1504 1505 1507 1509 1511 1513 1515 1518 1520 1523 1526 1528 1530 1533 1535 1538 1540 1542 1543 1545 1547 1549 1550 1552 1554 1555 1557 1558 1559 1560 1561 1563 1564
1499 1496 1492 1486 1483 1481 1481 1482 1485 1487 1488 1491 1493 1496 1500 1502 1504 1505 1507 1510 1511 1513 1515 1517 1520 1523 1525 1528 1530 1533 1535 1537 1539 1541 1543 1545 1547 1549 1550 1552 1554 1556 1557 1559 1560 1561 1562 1564 1565
1495 1494 1488 1484 1482 1480 1481 1483 1486 1488 1489 1492 1494 1497 1500 1502 1503 1505 1507 1510 1511 1513 1515 1517 1519 1522 1525 1527 1530 1532 1535 1537 1539 1541 1543 1545 1547 1549 1550 1552 1554 1556 1557 1559 1560 1561 1563 1564 1566
1494 1494 1487 1482 1481 1481 1482 1484 1487 1489 1490 1492 1494 1497 1500 1501 1502 1504 1507 1509 1511 1513 1515 1517 1519 1521 1524 1527 1529 1532 1534 1537 1539 1541 1543 1545 1546 1548 1550 1552 1554 1556 1557 1559 1560 1562 1563 1565 1566
1491 1489 1483 1481 1481 1483 1484 1486 1488 1490 1491 1492 1495 1497 1499 1500 1502 1503 1505 1507 1509 1512 1514 1516 1518 1521 1523 1526 1529 1531 1534 1536 1538 1540 1542 1544 1546 1548 1549 1551 1553 1555 1557 1558 1560 1562 1563 1565 1566
1486 1484 1481 1482 1483 1484 1485 1487 1488 1490 1492 1493 1495 1497 1498 1500 1502 1503 1505 1507 1509 1511 1513 1515 1517 1520 1522 1525 1528 1530 1533 1535 1538 1540 1542 1543 1545 1547 1549 1551 1553 1554 1556 1558 1560 1561 1563 1564 1566
1485 1483 1482 1483 1484 1485 1486 1487 1489 1490 1493 1494 1495 1496 1497 1499 1501 1502 1504 1506 1508 1510 1512 1514 1517 1519 1521 1524 1527 1529 1532 1534 1536 1539 1541 1543 1544 1546 1548 1550 1552 1554 1556 1557 1559 1561 1563 1564 1566
1483 1483 1484 1484 1485 1486 1487 1487 1489 1490 1492 1493 1494 1495 1496 1498 1500 1502 1503 1505 1507 1509 1511 1513 1515 1517 1520 1523 1525 1528 1531 1533 1535 1537 1540 1542 1543 1545 1547 1549 1551 1553 1555 1557 1559 1560 1562 1564 1565
1483 1483 1483 1483 1484 1486 1487 1487 1489 1489 1491 1492 1493 1495 1496 1498 1499 1501 1502 1503 1505 1507 1509 1512 1514 1516 1519 1521 1524 1527 1529 1532 1534 1536 1538 1540 1542 1544 1546 1548 1550 1552 1554 1556 1558 1559 1561 1563 1564
1483 1483 1482 1481 1482 1484 1486 1488 1488 1489 1490 1491 1493 1494 1496 1497 1498 1499 1501 1502 1504 1506 1508 1510 1512 1515 1517 1520 1523 1525 1527 1530 1532 1534 1537 1539 1541 1543 1545 1546 1548 1550 1552 1554 1556 1558 1560 1562 1563
1481 1482 1482 1479 1480 1482 1488 1489 1487 1488 1490 1491 1492 1493 1495 1496 1497 1498 1499 1501 1503 1504 1506 1508 1510 1513 1515 1518 1521 1523 1525 1528 1530 1532 1535 1537 1539 1541 1543 1545 1547 1549 1550 1553 1555 1556 1558 1560 1561
1480 1482 1479 1478 1478 1480 1485 1487 1486 1487 1488 1490 1492 1493 1494 1495 1496 1497 1498 1499 1501 1503 1505 1507 1509 1511 1514 1517 1519 1522 1524 1526 1528 1531 1533 1535 1538 1540 1541 1543 1545 1547 1549 1551 1553 1555 1557 1558 1560
1482 1480 1477 1477 1477 1479 1483 1484 1485 1487 1488 1489 1491 1492 1493 1494 1495 1496 1497 1498 1499 1501 1503 1505 1507 1510 1512 1515 1517 1520 1522 1524 1526 1529 1531 1533 1535 1538 1539 1541 1543 1545 1547 1549 1551 1553 1555 1556 1558
1480 1479 1478 1476 1475 1478 1481 1483 1485 1486 1487 1488 1490 1491 1492 1494 1495 1496 1496 1497 1498 1500 1502 1504 1505 1508 1510 1513 1515 1517 1520 1522 1525 1527 1529 1531 1533 1535 1537 1539 1541 1543 1545 1547 1549 1551 1553 1554 1556
1479 1479 1478 1477 1475 1477 1480 1483 1484 1485 1486 1487 1488 1489 1491 1492 1494 1495 1495 1496 1497 1498 1500 1502 1504 1507 1509 1511 1514 1516 1518 1521 1523 1525 1527 1529 1531 1533 1535 1537 1539 1541 1543 1545 1547 1548 1550 1552 1554
1478 1479 1478 1479 1478 1477 1480 1483 1483 1483 1484 1486 1487 1488 1490 1491 1492 1493 1494 1495 1496 1497 1499 1501 1503 1505 1507 1509 1512 1514 1516 1518 1521 1523 1524 1526 1528 1530 1532 1534 1536 1538 1540 1542 1544 1546 1548 1549 1552
1479 1476 1478 1479 1483 1483 1481 1487 1483 1482 1483 1485 1487 1488 1489 1490 1492 1493 1494 1495 1496 1497 1498 1500 1501 1504 1505 1507 1509 1511 1513 1515 1518 1520 1522 1524 1526 1528 1530 1532 1534 1536 1538 1540 1542 1544 1546 1548 1549
1478 1477 1478 1478 1481 1485 1482 1486 1485 1481 1485 1487 1487 1488 1489 1490 1491 1492 1493 1495 1496 1496 1497 1499 1500 1502 1504 1505 1507 1509 1511 1513 1516 1518 1520 1522 1523 1525 1527 1529 1531 1533 1535 1537 1539 1541 1543 1545 1546
1479 1477 1475 1476 1480 1487 1480 1484 1487 1487 1487 1487 1488 1489 1489 1490 1490 1492 1493 1494 1495 1496 1497 1498 1499 1501 1502 1504 1505 1507 1509 1511 1513 1515 1517 1519 1520 1522 1524 1526 1527 1529 1532 1534 1536 1538 1540 1542 1543
1481 1483 1483 1483 1483 1481 1475 1481 1492 1489 1487 1488 1488 1489 1490 1490 1490 1491 1492 1493 1494 1495 1496 1497 1498 1499 1501 1502 1504 1505 1507 1509 1510 1512 1514 1515 1517 1519 1521 1523 1524 1526 1528 1530 1532 1534 1536 1538 1540
1484 1483 1488 1489 1484 1480 1477 1484 1493 1490 1489 1489 1490 1491 1491 1490 1491 1492 1492 1493 1494 1494 1495 1496 1497 1498 1500 1501 1502 1504 1506 1507 1508 1510 1511 1512 1514 1516 1518 1519 1521 1523 1525 1527 1528 1530 1532 1534 1536
1486 1485 1483 1486 1483 1486 1484 1488 1490 1488 1489 1490 1491 1491 1492 1492 1492 1492 1493 1494 1494 1494 1495 1495 1496 1497 1498 1499 1500 1502 1504 1504 1506 1507 1509 1510 1511 1513 1514 1516 1518 1520 1522 1523 1525 1526 1528 1530 1532
1489 1487 1487 1487 1487 1487 1483 1487 1495 1495 1493 1493 1494 1493 1492 1493 1493 1493 1493 1493 1494 1494 1494 1495 1496 1496 1497 1498 1499 1500 1502 1502 1503 1505 1506 1507 1508 1510 1511 1513 1515 1516 1518 1519 1521 1522 1524 1526 1528
1493 1492 1490 1488 1487 1490 1494 1499 1497 1497 1496 1496 1496 1496 1495 1494 1494 1493 1493 1493 1493 1493 1494 1494 1494 1495 1495 1497 1498 1499 1500 1500 1501 1503 1504 1505 1506 1507 1508 1510 1511 1513 1514 1516 1517 1518 1520 1522 1523
1496 1498 1497 1499 1496 1492 1498 1508 1499 1499 1498 1498 1498 1498 1496 1495 1495 1494 1493 1493 1493 1493 1493 1493 1493 1494 1495 1495 1496 1497 1497 1498 1499 1500 1501 1502 1503 1504 1505 1506 1508 1509 1510 1512 1513 1514 1516 1517 1519